| time (UTC) | temp F | wind direction | speed knots | gust knots | rain 1hr in | rain 24hr in | rain mn in | humidity % | barometer mb |
| 20260502231603 | 55 | 0.0 | 1.7 | 0.00 | 0.17 | 0.00 | 74 | 1014.4 | |
| 20260502230600 | 55 | 0.0 | 0.0 | 0.00 | 0.17 | 0.00 | 73 | 1014.5 | |
| 20260502225557 | 56 | 0.0 | 1.7 | 0.00 | 0.17 | 0.00 | 70 | 1014.5 | |
| 20260502224554 | 57 | 0.0 | 0.0 | 0.00 | 0.17 | 0.00 | 66 | 1014.5 | |
| 20260502223551 | 58 | 0.0 | 0.0 | 0.00 | 0.17 | 0.00 | 63 | 1014.6 | |
| 20260502222547 | 60 | 0.0 | 1.7 | 0.00 | 0.17 | 0.00 | 58 | 1014.6 | |
| 20260502221604 | 64 | 338 | 0.0 | 1.7 | 0.00 | 0.17 | 0.00 | 50 | 1014.5 |
| 20260502220541 | 66 | 282 | 0.9 | 3.5 | 0.00 | 0.17 | 0.00 | 43 | 1014.6 |
| 20260502215538 | 66 | 179 | 0.0 | 3.5 | 0.00 | 0.17 | 0.17 | 42 | 1014.6 |
| 20260502214535 | 66 | 207 | 1.7 | 6.1 | 0.00 | 0.17 | 0.17 | 41 | 1014.6 |
| 20260502213552 | 66 | 227 | 1.7 | 3.5 | 0.00 | 0.17 | 0.17 | 41 | 1014.4 |
| 20260502212529 | 67 | 197 | 0.9 | 3.5 | 0.00 | 0.17 | 0.17 | 41 | 1014.5 |
| 20260502211526 | 67 | 222 | 0.9 | 3.5 | 0.00 | 0.17 | 0.17 | 41 | 1014.6 |
| 20260502210523 | 68 | 221 | 0.9 | 5.2 | 0.00 | 0.17 | 0.17 | 40 | 1014.7 |
| 20260502205539 | 67 | 221 | 1.7 | 7.0 | 0.00 | 0.17 | 0.17 | 40 | 1014.8 |
| 20260502204516 | 66 | 248 | 1.7 | 3.5 | 0.00 | 0.17 | 0.17 | 42 | 1014.8 |
| 20260502203613 | 66 | 113 | 0.0 | 3.5 | 0.00 | 0.17 | 0.17 | 43 | 1014.8 |
| 20260502202610 | 66 | 127 | 0.9 | 1.7 | 0.00 | 0.17 | 0.17 | 43 | 1014.7 |
| 20260502201707 | 64 | 218 | 0.9 | 3.5 | 0.00 | 0.17 | 0.17 | 45 | 1014.7 |
| 20260502200624 | 61 | 176 | 0.9 | 3.5 | 0.00 | 0.17 | 0.17 | 54 | 1014.8 |
| 20260502195601 | 57 | 304 | 0.0 | 3.5 | 0.00 | 0.17 | 0.17 | 67 | 1014.8 |
| 20260502194558 | 57 | 0.0 | 1.7 | 0.00 | 0.17 | 0.17 | 74 | 1014.8 | |
| 20260502193555 | 57 | 23 | 0.0 | 1.7 | 0.00 | 0.17 | 0.17 | 73 | 1014.6 |
| 20260502192611 | 58 | 23 | 0.0 | 1.7 | 0.00 | 0.17 | 0.17 | 73 | 1014.6 |
| 20260502191608 | 60 | 0.0 | 1.7 | 0.00 | 0.17 | 0.17 | 68 | 1014.5 | |
| 20260502190545 | 61 | 0.0 | 1.7 | 0.00 | 0.17 | 0.17 | 64 | 1014.5 | |
| 20260502185542 | 62 | 0.0 | 1.7 | 0.00 | 0.17 | 0.17 | 63 | 1014.4 | |
| 20260502184539 | 64 | 225 | 0.0 | 1.7 | 0.00 | 0.17 | 0.17 | 60 | 1014.4 |
| 20260502183556 | 68 | 0.0 | 0.0 | 0.00 | 0.17 | 0.17 | 45 | 1014.3 | |
| 20260502182552 | 70 | 236 | 0.9 | 1.7 | 0.00 | 0.17 | 0.17 | 42 | 1014.5 |
| 20260502181529 | 71 | 0.0 | 1.7 | 0.00 | 0.17 | 0.17 | 40 | 1014.5 | |
| 20260502180526 | 71 | 270 | 0.0 | 1.7 | 0.00 | 0.17 | 0.17 | 38 | 1014.5 |
| 20260502163619 | 74 | 210 | 0.9 | 6.1 | 0.00 | 0.17 | 0.17 | 37 | 1014.8 |
| 20260502162555 | 74 | 200 | 1.7 | 3.5 | 0.00 | 0.17 | 0.17 | 36 | 1014.9 |
| 20260502161553 | 75 | 162 | 1.7 | 5.2 | 0.00 | 0.17 | 0.17 | 37 | 1014.9 |
| 20260502160549 | 77 | 230 | 0.9 | 5.2 | 0.00 | 0.17 | 0.17 | 36 | 1015.0 |
| 20260502151534 | 78 | 178 | 1.7 | 6.1 | 0.00 | 0.17 | 0.17 | 35 | 1015.6 |
| 20260502150531 | 76 | 177 | 2.6 | 7.0 | 0.00 | 0.17 | 0.17 | 36 | 1015.9 |
| 20260502130553 | 75 | 202 | 0.9 | 3.5 | 0.00 | 0.17 | 0.17 | 49 | 1017.4 |
| 20260502123544 | 78 | 222 | 0.9 | 3.5 | 0.00 | 0.17 | 0.17 | 47 | 1017.8 |
| 20260502122541 | 77 | 146 | 0.9 | 3.5 | 0.00 | 0.17 | 0.17 | 46 | 1017.8 |
| 20260502121557 | 77 | 225 | 0.0 | 1.7 | 0.00 | 0.17 | 0.17 | 51 | 1018.0 |
| 20260502120534 | 77 | 131 | 0.9 | 3.5 | 0.00 | 0.17 | 0.17 | 48 | 1018.2 |
| 20260502115612 | 76 | 223 | 0.9 | 1.7 | 0.00 | 0.17 | 0.17 | 51 | 1018.3 |
| 20260502114528 | 77 | 224 | 0.9 | 3.5 | 0.00 | 0.17 | 0.17 | 48 | 1018.4 |
| 20260502113525 | 76 | 160 | 0.9 | 3.5 | 0.00 | 0.17 | 0.17 | 49 | 1018.7 |
| 20260502112542 | 75 | 214 | 0.9 | 3.5 | 0.00 | 0.17 | 0.17 | 50 | 1018.7 |
| 20260502111539 | 75 | 154 | 0.9 | 5.2 | 0.00 | 0.17 | 0.17 | 50 | 1018.9 |
| 20260502110516 | 74 | 113 | 0.9 | 3.5 | 0.00 | 0.17 | 0.17 | 49 | 1018.9 |
| 20260502105634 | 74 | 124 | 0.0 | 1.7 | 0.00 | 0.17 | 0.17 | 50 | 1018.9 |
| 20260502104630 | 73 | 155 | 0.9 | 3.5 | 0.00 | 0.17 | 0.17 | 51 | 1019.1 |
| 20260502103627 | 73 | 223 | 0.9 | 3.5 | 0.00 | 0.17 | 0.17 | 49 | 1019.3 |
| 20260502102604 | 73 | 113 | 0.0 | 1.7 | 0.00 | 0.17 | 0.17 | 48 | 1019.4 |
| 20260502101601 | 72 | 141 | 0.9 | 3.5 | 0.00 | 0.17 | 0.17 | 47 | 1019.6 |
| 20260502100558 | 71 | 113 | 0.0 | 3.5 | 0.00 | 0.17 | 0.17 | 50 | 1019.6 |
| 20260502090539 | 69 | 63 | 0.9 | 3.5 | 0.00 | 0.17 | 0.17 | 61 | 1019.7 |
| 20260502070602 | 52 | 0.0 | 0.0 | 0.06 | 0.06 | 0.06 | 88 | 1020.3 | |
| 20260502065558 | 53 | 45 | 0.9 | 3.5 | 0.06 | 0.06 | 0.06 | 86 | 1020.5 |
| 20260502064556 | 55 | 355 | 0.9 | 1.7 | 0.05 | 0.05 | 0.05 | 72 | 1021.2 |
| 20260502063552 | 55 | 255 | 0.0 | 1.7 | 0.00 | 0.00 | 0.00 | 70 | 1021.2 |
| 20260502062549 | 55 | 0.0 | 1.7 | 0.00 | 0.00 | 0.00 | 72 | 1020.7 | |
| 20260502061606 | 54 | 0.0 | 0.0 | 0.00 | 0.00 | 0.00 | 79 | 1020.5 | |
| 20260502060544 | 53 | 0.0 | 1.7 | 0.00 | 0.00 | 0.00 | 77 | 1020.5 | |
| 20260502055540 | 51 | 0.0 | 0.0 | 0.00 | 0.00 | 0.00 | 80 | 1020.7 | |
| 20260502054537 | 51 | 0.0 | 0.0 | 0.00 | 0.00 | 0.00 | 83 | 1020.9 | |
| 20260502053534 | 50 | 225 | 0.0 | 1.7 | 0.00 | 0.00 | 0.00 | 79 | 1020.9 |
| 20260502052531 | 50 | 0.0 | 0.0 | 0.00 | 0.00 | 0.00 | 83 | 1021.1 | |
| 20260502051527 | 50 | 0.0 | 1.7 | 0.00 | 0.00 | 0.00 | 83 | 1021.0 | |
| 20260502050524 | 50 | 0.0 | 0.0 | 0.00 | 0.00 | 0.00 | 84 | 1021.1 | |
| 20260502045541 | 48 | 0.0 | 0.0 | 0.00 | 0.00 | 0.00 | 85 | 1021.2 | |
| 20260502044518 | 46 | 242 | 0.0 | 1.7 | 0.00 | 0.00 | 0.00 | 84 | 1021.3 |
| 20260502043515 | 45 | 0.0 | 0.0 | 0.00 | 0.00 | 0.00 | 91 | 1020.9 | |
| 20260502042612 | 44 | 0.0 | 0.0 | 0.00 | 0.00 | 0.00 | 92 | 1020.9 | |
| 20260502041609 | 44 | 0.0 | 0.0 | 0.00 | 0.00 | 0.00 | 91 | 1020.8 | |
| 20260502040606 | 43 | 0.0 | 0.0 | 0.00 | 0.00 | 0.00 | 91 | 1020.7 | |
| 20260502035603 | 42 | 0.0 | 0.0 | 0.00 | 0.00 | 0.00 | 91 | 1020.5 | |
| 20260502034619 | 42 | 0.0 | 0.0 | 0.00 | 0.00 | 0.00 | 90 | 1020.8 | |
| 20260502033556 | 43 | 0.0 | 0.0 | 0.00 | 0.00 | 0.00 | 88 | 1020.7 | |
| 20260502032553 | 44 | 0.0 | 0.0 | 0.00 | 0.00 | 0.00 | 87 | 1020.8 | |
| 20260502031550 | 45 | 0.0 | 0.0 | 0.00 | 0.00 | 0.00 | 86 | 1020.8 | |
| 20260502030548 | 43 | 270 | 0.0 | 1.7 | 0.00 | 0.00 | 0.00 | 88 | 1021.1 |
| 20260502025544 | 44 | 0.0 | 0.0 | 0.00 | 0.00 | 0.00 | 87 | 1021.1 | |
| 20260502024601 | 45 | 0.0 | 0.0 | 0.00 | 0.00 | 0.00 | 85 | 1021.3 | |
| 20260502023538 | 46 | 345 | 0.0 | 1.7 | 0.00 | 0.00 | 0.00 | 83 | 1021.4 |
| 20260502022535 | 41 | 100 | 1.7 | 5.2 | 0.00 | 0.00 | 0.00 | 94 | 1021.6 |
| 20260502021552 | 40 | 0.0 | 0.0 | 0.00 | 0.00 | 0.00 | 94 | 1021.0 | |
| 20260502020528 | 40 | 0.0 | 0.0 | 0.00 | 0.00 | 0.00 | 94 | 1021.1 | |
| 20260502015525 | 40 | 0.0 | 0.0 | 0.00 | 0.00 | 0.00 | 93 | 1021.1 | |
| 20260502014522 | 40 | 0.0 | 0.0 | 0.00 | 0.00 | 0.00 | 93 | 1021.1 | |
| 20260502013559 | 40 | 0.0 | 0.0 | 0.00 | 0.00 | 0.00 | 91 | 1021.2 | |
| 20260502012516 | 41 | 0.0 | 0.0 | 0.00 | 0.00 | 0.00 | 91 | 1021.3 | |
| 20260502011613 | 41 | 0.0 | 0.0 | 0.00 | 0.00 | 0.00 | 91 | 1021.3 | |
| 20260502010610 | 41 | 0.0 | 0.0 | 0.00 | 0.00 | 0.00 | 90 | 1021.4 | |
| 20260502005607 | 41 | 0.0 | 0.0 | 0.00 | 0.00 | 0.00 | 89 | 1021.4 | |
| 20260502004604 | 41 | 0.0 | 0.0 | 0.00 | 0.00 | 0.00 | 88 | 1021.4 | |
| 20260502003600 | 42 | 0.0 | 0.0 | 0.00 | 0.00 | 0.00 | 87 | 1021.4 | |
| 20260502002527 | 42 | 0.0 | 0.0 | 0.00 | 0.00 | 0.00 | 88 | 1021.6 | |
| 20260502001523 | 43 | 0.0 | 0.0 | 0.00 | 0.00 | 0.00 | 85 | 1021.6 | |
| 20260502000521 | 45 | 0.0 | 0.0 | 0.00 | 0.00 | 0.00 | 82 | 1021.7 | |
| 20260501235518 | 46 | 0.0 | 0.0 | 0.00 | 0.00 | 0.00 | 80 | 1021.8 | |
| 20260501234615 | 44 | 0.0 | 1.7 | 0.00 | 0.00 | 0.00 | 85 | 1021.9 | |
| 20260501233631 | 40 | 203 | 0.0 | 3.5 | 0.00 | 0.00 | 0.00 | 92 | 1021.8 |
| 20260501232608 | 40 | 0.0 | 0.0 | 0.00 | 0.00 | 0.00 | 91 | 1021.7 |